Dewpoint
40 41 42 42 43 49 49 49 48 47 45 42 41 44 45 46 45 44 41 42 33 33 33 34 35 28 29 28 22 28 24 24 19 16 13 19 14 17 18 22 22 20 18 17 18 14 5 24 18 11 17 25 25 24
40 41 42 42 43 49 49 48 47 45 44 43 44 44 46 45 42 39 35 39 38 34 33 36 34 35 35 32 30 29 26 24 21 18 23 25 19 19 18 9 23 18 20 18 18 16 24 26 24 26 26 25 25 25
39 41 42 42 46 48 48 47 46 45 44 44 44 45 45 43 40 39 37 37 35 33 33 33 33 35 39 38 34 25 30 31 28 31 27 25 19 23 14 16 20 22 25 20 20 24 25 25 26 25 25 24 25 25
39 42 42 42 48 48 47 46 45 45 44 45 45 45 43 42 42 41 37 39 35 33 30 33 36 36 39 40 36 33 34 38 36 32 27 26 23 27 21 22 19 21 25 24 24 25 24 24 24 24 24 24 23 24
40 42 42 46 47 47 47 46 45 45 45 45 45 44 43 42 41 40 38 38 37 32 30 32 34 34 36 38 37 37 35 31 28 24 26 24 26 24 24 22 21 25 25 23 20 25 24 24 25 24 23 23 23 21
42 41 41 47 46 46 46 45 45 44 44 43 43 43 43 42 39 35 29 34 37 36 32 30 33 32 34 35 33 33 34 33 31 28 28 29 30 24 20 18 25 27 28 27 24 26 26 26 25 22 19 19 19 18
41 41 46 46 45 45 45 45 44 44 44 43 43 44 43 42 38 34 30 32 37 37 32 30 31 32 33 33 33 32 32 31 31 29 27 26 27 26 23 17 26 27 27 27 27 26 24 23 19 19 19 19 19 19
42 46 46 45 45 44 44 44 44 44 43 43 44 44 42 40 39 34 36 39 37 32 32 29 30 30 32 30 29 32 28 29 28 27 28 25 26 24 19 26 26 26 26 25 25 25 23 19 18 18 19 19 20 20
46 45 45 44 44 44 44 43 43 44 44 44 42 42 38 34 31 29 34 36 36 29 27 29 29 28 31 30 30 29 28 22 27 25 26 26 23 18 24 25 25 24 24 21 21 21 21 22 23 23 21 20 20 22
45 44 44 43 43 43 42 42 43 43 42 40 36 34 32 32 36 34 29 26 30 31 29 28 30 28 29 28 28 27 27 23 19 24 26 23 23 26 27 25 26 25 22 21 19 20 22 21 19 19 20 21 19 18
44 43 43 43 42 41 42 41 41 40 37 35 33 32 34 36 31 30 26 24 26 26 28 28 30 28 30 27 27 28 22 24 12 21 21 22 22 25 25 24 23 23 22 22 22 21 20 18 16 15 16 16 17 18
43 43 42 42 42 41 40 40 39 38 35 34 34 35 34 31 28 26 23 22 23 23 27 27 28 28 29 29 27 29 23 24 17 25 20 20 25 23 23 22 22 22 22 20 18 17 16 16 17 16 16 17 18 19
42 42 42 41 40 40 41 39 36 36 34 35 33 32 29 29 23 22 20 20 19 26 28 28 26 26 26 28 26 22 20 21 25 21 19 24 24 23 21 21 20 19 17 16 14 14 14 15 15 17 17 18 19 19
42 41 41 40 41 41 39 37 36 34 32 31 29 26 24 22 22 20 19 19 25 28 28 27 26 23 25 23 23 17 22 23 19 17 18 24 23 21 20 18 16 15 15 15 14 14 15 15 15 17 18 19 19 20
42 41 40 41 41 39 38 35 33 33 30 28 25 19 20 25 27 26 28 28 29 29 26 24 24 24 23 21 23 22 21 18 19 17 22 24 22 20 18 16 14 15 15 15 16 16 15 15 16 16 18 20 20 19
41 41 41 40 39 37 34 32 33 32 29 29 28 27 28 27 27 28 28 27 28 25 24 22 19 18 20 20 18 18 18 14 17 22 25 22 19 18 16 14 14 15 15 15 16 17 17 15 16 18 18 19 20 21
41 39 41 39 37 35 34 32 32 30 29 28 27 28 28 27 27 27 28 26 27 21 16 17 13 17 22 19 18 21 16 16 24 25 22 19 17 15 15 15 15 14 14 16 16 17 17 19 18 19 20 21 22 22
39 40 38 36 35 33 31 30 29 28 26 26 24 24 24 25 24 24 24 24 22 21 20 17 22 17 15 16 18 22 24 24 22 19 18 17 14 14 13 13 14 14 15 17 18 19 19 20 20 21 22 23 23 21
39 39 35 29 28 26 26 27 28 24 26 26 23 22 20 19 21 21 20 21 21 22 20 20 17 19 21 22 23 23 22 19 17 16 14 13 13 12 13 13 14 15 17 19 20 20 21 22 22 22 23 23 22 21
37 33 28 28 26 24 24 27 29 27 24 24 21 17 17 17 19 19 18 20 21 21 18 19 21 23 23 24 24 22 19 17 13 11 12 14 15 11 13 14 16 18 20 21 21 21 21 21 22 23 23 22 20 17
31 26 26 25 24 25 25 26 26 26 24 22 22 17 14 17 15 14 13 20 18 19 18 19 19 21 22 21 20 18 16 14 12 9 12 12 14 13 16 19 20 21 20 20 20 21 22 22 21 20 18 16 16 17
25 23 20 24 20 20 20 24 24 24 23 21 20 18 14 11 11 14 17 17 19 19 18 18 18 19 17 17 16 16 15 14 14 12 11 12 12 14 18 20 19 19 20 21 22 22 18 18 17 16 15 15 16 17
21 20 18 19 17 14 13 20 19 19 19 16 16 14 14 12 13 15 12 17 17 18 16 16 16 16 15 15 14 13 13 10 8 9 11 13 17 20 20 21 21 19 20 22 21 18 15 15 15 14 14 14 14 14
22 17 13 11 11 9 13 14 19 15 12 12 12 10 9 8 11 11 11 13 14 16 13 14 13 12 12 10 8 8 10 11 11 14 17 19 17 19 21 21 22 23 22 18 17 14 13 12 12 13 12 11 12 12
10 9 10 8 11 8 8 8 9 9 10 11 7 5 6 10 6 7 10 11 12 12 13 13 11 9 6 7 10 11 16 13 12 15 20 19 18 21 19 20 21 19 19 15 13 11 9 10 10 10 11 11 12 13
5 11 8 8 9 7 7 5 5 8 8 9 10 13 11 6 4 6 10 12 10 10 10 8 7 8 7 8 8 11 15 19 17 14 16 20 20 19 16 17 19 19 18 14 12 10 9 9 10 11 10 11 13 11
6 8 14 16 14 12 10 11 11 7 6 6 9 7 2 1 5 11 14 16 12 12 12 12 9 7 6 12 17 20 20 19 18 17 19 20 20 19 20 21 18 14 15 12 9 9 9 9 8 9 10 11 8 7
11 11 8 10 10 9 5 6 5 5 9 11 5 1 2 4 10 14 17 20 17 17 17 18 17 13 16 19 20 20 20 19 19 18 17 16 15 14 14 14 13 11 8 8 8 6 6 6 8 8 9 8 6 2
12 14 14 13 15 16 13 7 10 13 13 7 4 7 11 13 17 19 22 22 21 17 17 18 20 20 20 21 22 21 20 19 19 18 18 17 15 14 11 10 8 6 6 4 3 3 6 10 11 10 7 4 2 -2
15 17 14 13 13 14 16 16 16 16 17 16 18 18 19 19 19 20 18 17 15 16 17 19 22 20 20 20 20 21 22 20 18 21 19 17 17 13 10 9 6 5 2 1 -0 -0 4 6 5 2 0 -2 -6 -9
16 13 13 14 15 17 16 13 12 13 13 14 14 15 15 16 20 22 22 23 24 24 22 21 22 23 22 20 18 19 18 19 17 17 16 14 12 11 8 5 4 3 2 1 -1 1 2 3 2 1 -1 -3 -7 -11
10 11 12 13 14 13 10 9 7 8 11 11 12 10 11 8 10 18 23 23 21 19 19 18 16 13 18 18 17 16 16 16 16 14 13 12 10 8 6 4 2 2 2 0 -3 -2 1 2 0 -2 -3 -6 -10 -12
11 10 9 7 7 7 7 3 2 2 8 11 10 9 10 3 -0 16 18 23 21 19 18 19 18 17 18 20 20 17 14 14 13 12 12 11 9 7 4 1 1 2 2 -1 -4 -5 -2 -1 -2 -4 -7 -10 -12 -12
Wind_Speed
24 22 23 22 26 34 49 50 51 50 53 52 48 45 43 24 20 8 5 3 5 7 3 2 1 9 7 9 14 11 8 1 3 5 5 5 5 10 5 7 8 13 13 7 5 5 10 1 3 6 3 7 12 10
24 20 20 20 25 44 47 49 50 52 53 53 47 44 41 22 18 9 7 0 14 12 5 2 3 4 1 2 14 3 6 8 8 7 3 6 4 5 7 6 4 8 8 7 12 7 1 3 3 2 5 12 7 10
21 20 22 22 22 48 47 49 50 50 52 51 48 45 40 23 16 9 10 8 10 7 9 8 4 6 6 3 2 9 3 7 5 3 8 4 4 7 10 7 6 5 5 3 5 2 1 4 7 8 11 11 10 8
24 23 20 25 43 46 48 48 50 51 52 50 47 47 34 22 17 11 8 5 9 9 7 3 9 5 13 4 3 2 16 9 10 5 5 4 4 3 6 2 6 4 10 7 1 3 6 4 8 11 12 11 9 7
27 24 25 25 44 45 49 50 50 50 49 48 47 41 33 19 17 15 14 8 2 5 8 6 1 13 18 12 20 17 21 14 5 5 4 3 5 6 3 3 5 5 6 9 7 14 6 10 8 9 10 7 9 12
21 20 20 44 47 47 47 48 49 48 46 47 42 33 29 19 24 6 7 3 1 4 8 6 1 8 12 16 23 19 13 10 6 6 5 3 2 3 6 7 0 1 3 5 3 9 14 16 11 10 14 12 11 9
25 24 38 47 48 50 49 47 47 47 45 47 39 32 29 20 4 8 8 9 5 5 8 7 4 4 6 6 6 10 11 7 5 4 4 4 3 3 3 4 4 6 9 16 20 20 15 7 10 11 13 9 8 7
25 35 47 50 50 52 50 49 48 47 47 46 41 31 26 19 16 5 7 7 8 11 8 8 3 2 7 5 5 8 4 4 9 4 3 3 3 2 3 9 13 13 15 13 9 11 15 16 14 12 10 10 10 8
38 47 51 53 53 52 52 49 49 50 47 40 37 36 11 5 4 5 4 9 12 7 8 5 10 7 3 4 3 4 5 5 3 3 2 1 2 5 5 19 18 17 7 15 18 20 18 17 15 13 12 10 8 5
48 51 53 54 54 54 53 52 51 47 45 45 28 10 5 2 3 3 6 5 8 6 5 5 4 7 5 2 4 3 5 3 3 1 2 2 3 2 9 12 14 15 21 21 22 14 13 13 11 9 9 6 4 4
52 53 55 55 56 56 53 51 52 52 35 12 6 5 6 2 5 7 4 5 2 4 3 4 4 13 1 6 5 3 3 2 3 3 5 4 4 3 10 16 16 18 17 16 18 16 13 12 9 7 5 4 6 8
54 55 56 57 58 57 51 47 51 24 6 13 17 10 5 8 6 5 3 1 3 6 5 10 8 6 5 5 6 3 3 3 4 6 3 3 3 13 17 20 18 19 21 19 17 15 12 10 7 5 5 8 9 10
55 56 56 57 58 51 44 37 31 42 38 13 10 7 5 2 5 9 11 5 7 9 9 10 11 7 5 6 6 3 4 4 9 3 3 3 14 15 18 19 18 17 19 17 14 11 10 8 6 6 7 8 9 11
56 57 57 59 50 39 42 43 34 27 12 8 6 7 6 7 9 8 11 11 6 13 21 15 9 5 4 4 4 5 3 7 4 4 6 13 20 18 16 16 21 15 15 14 12 10 9 8 7 8 7 6 8 11
54 56 58 48 42 45 34 29 28 14 7 5 4 5 6 4 4 5 9 10 8 20 16 15 9 6 4 5 3 5 5 5 7 5 8 17 21 21 19 17 18 16 14 11 7 7 5 5 6 8 8 9 10 12
55 52 41 47 43 33 35 27 12 4 5 4 5 5 7 12 8 6 14 19 7 12 9 9 6 5 3 8 5 6 9 7 5 6 14 21 21 19 18 17 16 14 12 9 7 5 3 3 5 7 10 11 13 13
38 28 48 43 33 31 27 10 5 6 5 4 5 6 8 11 8 6 11 16 5 6 6 6 5 3 7 5 6 4 5 3 11 17 17 21 21 19 17 16 14 12 9 6 4 3 5 5 5 8 12 13 13 15
46 44 39 33 30 20 6 9 6 6 7 8 8 5 6 6 12 10 5 4 6 5 3 3 7 4 5 7 5 6 5 12 14 19 19 18 18 17 16 15 11 8 5 2 1 4 5 8 9 10 12 11 13 15
43 35 30 29 19 8 5 5 6 7 9 5 6 6 8 8 11 9 13 15 12 8 10 4 4 3 4 3 9 15 17 19 22 17 15 16 18 17 14 11 9 6 4 2 2 4 7 6 6 9 10 10 13 15
40 30 29 18 7 6 7 5 4 8 6 3 6 9 7 5 3 10 16 10 6 5 7 4 2 1 3 6 14 20 18 19 23 21 17 13 13 13 12 10 7 4 2 2 3 5 8 9 9 10 11 13 14 17
31 12 16 7 7 11 7 4 7 6 7 6 4 6 7 6 9 11 10 7 8 4 4 3 3 7 12 16 16 19 18 18 17 17 17 16 7 10 8 6 4 2 2 2 4 6 6 6 9 11 12 15 15 15
6 11 5 8 7 6 7 9 8 6 6 4 4 5 6 5 6 6 4 11 4 3 2 5 8 15 19 19 16 16 16 18 17 16 14 13 9 6 6 4 2 1 1 1 1 2 5 7 9 11 14 16 14 14
11 9 7 7 7 7 3 2 5 4 6 4 3 4 4 4 3 3 5 3 3 3 6 11 11 15 21 17 19 16 16 20 16 14 11 9 8 8 6 4 3 2 2 1 1 2 6 9 10 13 13 14 14 15
9 7 7 6 7 5 3 4 4 5 5 4 4 4 3 3 2 5 4 3 1 1 11 17 18 19 16 16 16 14 10 12 12 8 7 12 8 4 5 4 2 3 2 2 1 4 7 10 12 12 14 15 16 15
9 8 6 7 4 5 5 4 4 5 5 3 4 3 2 2 4 3 3 6 7 12 15 15 16 16 18 11 8 7 4 9 11 8 9 4 5 5 3 2 3 2 1 2 6 9 12 11 11 13 13 15 16 16
8 6 4 3 3 5 4 5 4 7 6 4 4 3 2 3 3 3 5 11 9 14 16 19 17 12 10 9 10 7 6 6 11 7 5 8 7 4 3 5 4 5 1 1 4 10 13 12 12 14 16 15 14 12
5 4 3 3 5 8 8 7 6 8 5 4 6 4 3 4 3 1 2 5 8 10 16 17 14 12 11 8 4 5 10 7 5 4 4 6 4 2 3 4 5 3 2 2 3 6 10 13 13 13 14 12 5 6
4 2 7 2 7 6 8 6 4 3 4 5 7 4 4 4 3 4 4 5 9 14 12 8 5 6 9 11 14 14 9 10 12 12 11 9 8 7 7 8 7 4 2 2 4 6 8 11 12 13 10 5 6 5
5 3 9 12 7 8 6 4 3 2 7 5 6 5 5 2 1 3 4 9 14 18 15 13 9 10 12 10 8 5 10 14 12 8 8 7 3 6 4 4 3 2 2 5 7 8 9 10 8 3 2 4 3 3
4 4 7 6 6 5 4 1 3 2 2 4 7 11 9 7 9 6 12 15 17 16 11 12 9 6 8 8 6 3 2 6 8 7 6 6 5 5 9 5 2 1 1 4 8 11 9 5 4 4 5 7 8 8
3 5 6 6 7 4 6 6 12 15 15 17 13 18 13 5 6 8 9 7 9 9 9 7 4 4 5 6 6 6 6 7 7 6 5 7 9 9 7 5 3 2 1 4 7 8 7 4 4 6 7 7 7 8
6 6 12 10 10 3 6 9 9 10 9 10 9 6 5 5 5 2 2 5 7 6 5 6 5 4 10 8 6 5 2 2 10 11 10 9 9 8 7 6 4 3 1 3 5 6 5 6 6 5 6 7 7 7
10 14 12 9 6 5 5 7 6 5 9 6 7 4 3 2 4 4 2 5 5 6 8 7 7 5 3 5 5 5 4 5 8 9 9 8 9 9 8 5 4 2 1 3 5 6 6 6 5 5 5 6 7 7
Wind_Direction
204 214 229 242 249 189 161 161 160 161 161 160 159 162 157 144 144 119 129 344 118 99 95 147 110 152 149 160 154 155 126 209 107 134 145 166 150 190 154 162 171 178 174 183 138 200 258 355 152 189 189 121 148 143
201 215 234 266 271 166 161 160 158 157 157 159 158 156 156 154 129 132 103 132 73 78 115 96 89 67 347 137 134 130 161 161 160 121 154 132 138 158 159 200 167 207 195 193 192 217 319 309 246 120 137 146 145 135
197 219 222 246 229 160 158 155 155 157 156 155 157 156 163 142 111 96 121 111 75 105 67 46 8 338 22 304 246 138 203 163 142 139 146 140 143 157 170 215 177 216 175 185 166 178 85 87 86 99 115 123 131 136
197 214 231 251 166 156 154 153 152 151 153 155 154 156 163 130 110 109 120 110 97 113 111 63 11 15 325 338 196 158 131 104 111 91 96 121 133 191 176 146 189 169 162 162 113 123 111 82 114 117 112 116 115 119
203 199 216 188 151 154 151 149 147 148 147 149 146 150 157 116 85 81 70 30 134 126 133 118 315 10 20 60 82 89 112 113 105 94 84 124 130 126 86 119 203 186 172 185 222 187 141 158 141 130 118 113 126 123
193 216 234 151 146 145 144 146 145 145 144 146 145 141 129 137 131 138 109 38 48 137 104 105 311 6 9 43 65 64 63 64 79 100 100 94 70 117 156 192 166 273 257 204 144 121 113 118 111 115 110 110 111 107
199 219 158 141 139 138 136 138 142 145 143 145 143 136 148 134 92 119 180 149 155 90 96 105 98 2 350 28 40 40 43 57 75 96 74 113 94 101 119 203 127 87 101 102 109 109 99 110 121 107 101 94 81 68
209 163 142 138 137 136 137 136 134 134 138 139 144 142 136 133 118 80 359 100 104 92 77 109 98 94 13 42 65 8 57 44 33 91 86 110 112 71 178 136 121 111 98 85 81 98 115 108 94 85 79 87 78 65
156 141 138 135 133 131 130 132 136 133 134 134 137 134 138 70 94 144 184 70 68 91 111 107 137 155 76 77 77 55 37 72 349 74 76 113 134 201 170 152 147 143 127 123 93 94 98 99 95 90 80 66 65 37
138 136 134 133 133 132 129 128 133 134 134 139 145 92 84 36 291 146 26 38 36 27 62 95 122 123 114 107 71 81 31 91 138 172 97 103 161 3 152 143 137 127 128 125 114 110 107 101 97 87 79 72 46 346
133 132 132 134 133 132 129 134 141 142 143 113 90 93 139 259 77 47 69 63 42 77 69 113 120 129 80 106 109 43 120 102 178 184 181 178 191 133 120 114 112 111 108 100 104 104 104 111 107 95 73 30 358 343
133 133 132 132 133 135 139 143 141 140 119 139 111 106 81 47 55 82 67 81 150 177 143 130 137 118 96 101 97 178 132 138 205 146 157 212 141 133 121 114 110 112 111 106 106 108 103 97 94 71 29 4 354 340
133 131 132 133 136 138 138 135 115 127 118 97 67 71 98 70 111 168 178 198 172 164 159 150 122 122 109 81 87 125 152 182 134 167 217 172 144 131 126 118 109 107 107 109 107 103 97 80 53 33 2 0 349 335
133 133 136 135 136 129 122 132 134 116 85 69 96 118 172 172 208 187 183 168 162 146 137 125 99 105 107 103 138 136 133 138 169 213 219 157 148 138 126 122 118 119 117 114 102 85 67 45 17 3 359 340 325 328
129 131 134 137 127 126 126 111 96 74 68 94 124 141 173 143 75 126 121 108 111 135 126 108 74 88 100 121 138 120 152 203 211 224 159 150 140 132 130 127 122 123 120 110 98 81 60 35 12 342 339 337 334 338
126 128 133 130 123 117 108 87 64 71 61 72 63 102 126 108 110 91 113 121 112 125 96 77 105 127 141 140 149 184 168 209 201 152 140 134 131 130 127 127 128 125 117 110 94 67 13 328 344 333 329 341 339 334
119 130 124 119 121 106 93 89 74 59 66 61 59 48 83 90 115 116 136 133 131 111 107 117 117 135 126 137 161 176 193 159 135 128 131 129 130 132 131 126 121 115 107 99 86 44 355 340 334 346 344 334 329 326
121 123 117 117 112 105 56 43 79 67 63 32 78 35 67 59 107 96 88 87 105 94 80 96 120 127 157 165 186 157 115 114 117 123 125 126 127 128 123 121 119 114 106 153 64 9 347 346 344 333 324 324 325 322
128 131 133 99 96 87 89 52 47 80 55 30 56 43 62 70 51 76 80 76 83 97 106 70 91 131 160 119 131 131 133 135 128 123 122 126 126 124 122 119 117 109 77 25 358 348 339 337 330 328 325 325 319 315
123 102 80 74 82 83 77 46 54 80 67 19 31 47 66 68 64 61 61 52 58 58 58 51 81 115 131 130 134 136 129 130 126 124 124 124 127 128 128 126 112 89 50 44 29 16 1 349 357 349 333 328 324 318
104 82 53 65 54 65 79 74 61 95 104 75 7 60 54 35 44 45 35 8 61 40 68 44 71 89 100 102 113 121 126 132 134 139 142 140 143 137 124 118 106 92 81 42 348 346 5 358 335 337 334 325 319 310
97 81 82 43 76 68 70 25 105 107 78 106 54 58 64 52 39 25 352 48 54 28 77 123 116 114 110 113 115 117 120 116 117 120 124 129 134 138 135 138 126 141 70 36 12 358 342 339 339 334 328 321 315 310
69 50 56 47 78 67 84 27 75 50 94 89 65 70 52 66 45 2 71 61 54 13 106 105 95 105 110 109 110 111 122 130 134 138 137 129 130 134 137 155 162 261 274 170 95 345 339 338 332 325 321 322 322 320
52 56 48 56 65 95 73 58 74 85 86 77 79 94 73 84 40 64 78 46 82 59 113 113 112 108 105 115 123 130 126 133 132 129 143 140 144 167 160 161 172 139 142 166 308 338 336 331 328 326 326 326 327 323
74 17 63 65 61 93 90 78 70 77 93 93 90 87 89 63 82 82 127 146 152 140 130 129 129 136 138 135 129 135 151 153 152 162 173 165 138 133 142 108 127 154 121 336 334 335 329 325 321 323 326 325 325 325
75 11 59 103 102 102 129 112 123 120 109 89 92 105 81 97 86 132 177 166 151 156 154 151 145 141 140 147 150 160 173 159 135 143 193 201 190 198 233 211 243 243 154 103 333 322 319 322 324 326 327 328 328 339
87 68 52 52 101 111 102 82 99 91 97 119 149 122 109 93 114 199 160 176 143 169 173 166 157 160 161 156 139 124 129 120 108 125 106 119 110 150 189 222 221 194 134 15 320 297 305 312 314 316 320 323 358 2
98 104 126 104 74 57 103 89 96 111 133 134 114 89 106 134 142 173 164 163 147 135 129 113 93 143 148 140 135 128 108 108 103 99 92 76 65 78 99 104 101 89 27 348 311 303 298 301 306 312 314 319 331 10
63 86 88 69 59 53 53 80 106 130 142 123 114 122 131 156 356 99 108 133 127 124 123 117 94 108 105 100 93 85 153 162 170 208 233 243 267 231 171 128 100 56 17 339 329 321 310 306 310 310 1 351 359 19
63 52 90 63 61 59 21 354 107 132 71 99 109 108 90 70 26 30 105 112 113 116 122 126 127 130 155 174 191 206 200 207 219 223 238 254 247 172 169 172 157 115 10 349 346 340 343 350 5 20 7 2 6 359
87 94 80 71 85 57 51 54 82 76 74 78 69 95 97 94 64 40 61 85 104 113 119 126 144 181 195 215 225 223 249 225 216 201 165 142 147 158 165 172 173 168 26 358 353 347 340 346 345 339 341 344 348 349
49 89 118 112 112 54 48 68 73 74 58 72 46 48 53 71 82 24 131 118 121 140 161 164 182 223 216 211 203 215 220 186 183 172 162 156 158 165 166 165 167 162 36 4 359 351 339 324 321 326 330 334 335 334
88 97 99 105 104 93 35 88 64 79 45 52 41 34 46 91 122 191 269 224 205 184 186 204 223 228 221 204 207 191 186 167 165 167 164 163 166 166 165 160 155 147 50 359 352 348 335 320 313 314 318 320 321 323